sat.trackr.live / text

‹ back to catalog

UNKNOWN

NORAD 82303

UNKNOWN UNKNOWN UNKNOWN

§ Identity

Operator
Country
Launch date
Launch site
Launch vehicle
Mass (kg)
RCS (m²)

External: N2YO · Heavens-Above

§ Orbital elements

Epoch: 2026-09-18T01:29:38.793984Z

Period
102.72 min
Inclination
81.9295°
Eccentricity
0.0078774
Mean motion
14.01877687 rev/d
Perigee alt
830.1 km
Apogee alt
944.5 km
Semi-major
7,265.4 km
B*
1.2697e-2
RAAN
118.5486°
Arg perigee
293.6174°
Mean anomaly
219.0284°
Rev number
55,336

§ Raw data

UNKNOWN1 82303U          26261.06225456  .00019894  00000+0  12697-1 0  99992 82303  81.9295 118.5486 0078774 293.6174 219.0284 14.01877687553367

JSON: /api/v1/satellites/82303 · /tle

For live sub-satellite position, see the globe view (requires WebGL).

§ Visibility from observer

Set your observer location to see the next 7 days of passes ≥ 10°. The values pass through the URL so the page stays shareable.

No JS? Fill the form by hand. The geolocation button needs JavaScript.